Tucson Davis Monthan, AZ

8:34 AM MST on October 17, 2019 (GMT -0700)
Davis-Monthan Air Force Base

Weather History for KDMA - September, 2019

Change the Weather History Date:

Wednesday, September 18, 2019

  Actual Average Record
Temperature  
Mean Temperature 81 °F -  
Max Temperature 95 °F 93 °F 105 °F (1956)
Min Temperature 67 °F 66 °F 57 °F (1993)
Cooling Degree Days 16    
Growing Degree Days 31 (Base 50)    
Moisture  
Dew Point 53 °F    
Average Humidity 41    
Maximum Humidity 70    
Minimum Humidity 21    
Precipitation  
Precipitation 0.00 in - - ()
Sea Level Pressure  
Sea Level Pressure 29.82 in    
Wind  
Wind Speed 6 mph (South)    
Max Wind Speed 9 mph    
Max Gust Speed -    
Visibility 10 miles    
Events      
Averages and records for this station are not official NWS values.
T = Trace of Precipitation, MM = Missing Value Source: NWS Daily Summary

Daily Weather History Graph

Daily Weather History Graph

Search for Another Location

Airport or City:

Astronomy

Sep. 18, 2019 Rise Set
Actual Time 6:09 AM MST 6:25 PM MST
Civil Twilight 5:44 AM MST 6:50 PM MST
Nautical Twilight 5:16 AM MST 7:18 PM MST
Astronomical Twilight 4:47 AM MST 7:47 PM MST
Moon 9:16 PM MST (9/18) 10:02 AM MST (9/18)
Length of Visible Light 13h 05m
Length of Day
12h 16m
Waning Gibbous, 82% of the Moon is Illuminated
Sep 18
Waning Gibbous
Sep 21
Last Quarter
Sep 28
New
Oct 5
First Quarter
Oct 13
Full

Hourly Weather History & Observations

Time (MST) Temp. Heat Index Dew Point Humidity Pressure Visibility Wind Dir Wind Speed Gust Speed Precip Events Conditions
1:58 AM 71.6 °F - 57.4 °F 61% 29.83 in 10.0 mi ESE 9.2 mph - N/A   Clear
2:58 AM 70.9 °F - 56.3 °F 60% 29.83 in 10.0 mi South 9.2 mph - N/A   Clear
3:58 AM 70.5 °F - 55.9 °F 60% 29.83 in 10.0 mi SSE 9.2 mph - N/A   Clear
4:58 AM 69.4 °F - 55.8 °F 62% 29.83 in 10.0 mi SE 6.9 mph - N/A   Clear
5:58 AM 67.3 °F - 57.2 °F 70% 29.85 in 10.0 mi SSE 3.5 mph - N/A   Clear
6:58 AM 70.9 °F - 54.9 °F 57% 29.86 in 10.0 mi SE 5.8 mph - N/A   Clear
7:58 AM 76.6 °F - 55.9 °F 49% 29.87 in 10.0 mi SSE 6.9 mph - N/A   Clear
8:58 AM 81.7 °F 81.3 °F 55.6 °F 41% 29.88 in 10.0 mi Calm Calm - N/A   Clear
9:58 AM 85.1 °F 83.6 °F 54.3 °F 35% 29.88 in 10.0 mi Calm Calm - N/A   Clear
10:58 AM 89.4 °F 87.3 °F 53.8 °F 30% 29.86 in 10.0 mi WSW 3.5 mph - N/A   Clear
11:58 AM 91.8 °F 89.5 °F 54.0 °F 28% 29.85 in 10.0 mi NNW 3.5 mph - N/A   Clear
12:58 PM 92.8 °F - 51.8 °F 25% 29.83 in 10.0 mi Calm Calm - N/A   Clear
2:58 PM 94.8 °F - 48.7 °F 21% 29.77 in 10.0 mi WNW 6.9 mph - N/A   Clear
3:58 PM 95.0 °F - 48.9 °F 21% 29.76 in 10.0 mi NNE 5.8 mph - N/A   Clear
4:58 PM 94.5 °F - 48.4 °F 21% 29.75 in 10.0 mi NNW 9.2 mph - N/A   Clear
6:58 PM 88.9 °F - 46.2 °F 23% 29.75 in 10.0 mi NNW 5.8 mph - N/A   Clear
7:58 PM 86.5 °F - 48.6 °F 27% 29.78 in 10.0 mi Calm Calm - N/A   Partly Cloudy
8:58 PM 80.1 °F 80.6 °F 57.9 °F 47% 29.78 in 10.0 mi SW 8.1 mph - N/A   Clear
9:58 PM 83.1 °F - 49.3 °F 31% 29.78 in 10.0 mi West 6.9 mph - N/A   Partly Cloudy
10:58 PM 78.1 °F - 52.5 °F 41% 29.80 in 10.0 mi South 5.8 mph - N/A   Clear
11:58 PM 75.4 °F - 55.4 °F 50% 29.80 in 10.0 mi SE 5.8 mph - N/A   Clear